AAL4L KBDL-KMIA

Flight info

Callsign AAL4L
Flight time 2h 43m
Altitude 38000
Route THUMB1 CCC HEADI Q97 KALDA Q101 SKARP Y313 HOAGG BNFSH3
Aircraft B38M/M-SDE1FGHILORVWXY/HB1

Departure

Time 2026-05-05 03:52
Airport Bradley International Airport (KBDL)

Arrival

Time 2026-05-05 06:35
Airport Miami International Airport (KMIA)
Time Latitude Longitude Altitude Speed Heading
2026-05-05 03:21 41.93210 -72.68381 216 ft 0 kts 198°
2026-05-05 03:38 41.93222 -72.68377 209 ft 4 kts 192°
2026-05-05 03:38 41.93248 -72.68374 212 ft 4 kts 172°
2026-05-05 03:38 41.93272 -72.68385 209 ft 4 kts 141°
2026-05-05 03:39 41.93284 -72.68410 215 ft 4 kts 84°
2026-05-05 03:39 41.93281 -72.68422 214 ft 0 kts 45°
2026-05-05 03:43 41.93284 -72.68418 207 ft 2 kts 45°
2026-05-05 03:43 41.93313 -72.68379 219 ft 11 kts 45°
2026-05-05 03:44 41.93411 -72.68398 213 ft 22 kts 317°
2026-05-05 03:44 41.93533 -72.68564 217 ft 27 kts 312°
2026-05-05 03:44 41.93664 -72.68737 219 ft 18 kts 344°
2026-05-05 03:44 41.93745 -72.68671 217 ft 13 kts 41°
2026-05-05 03:45 41.93823 -72.68576 209 ft 18 kts 41°
2026-05-05 03:45 41.93925 -72.68457 208 ft 21 kts 41°
2026-05-05 03:45 41.94038 -72.68324 214 ft 22 kts 43°
2026-05-05 03:45 41.94157 -72.68175 209 ft 24 kts 43°
2026-05-05 03:46 41.94287 -72.68016 209 ft 26 kts 42°
2026-05-05 03:46 41.94425 -72.67843 214 ft 28 kts 45°
2026-05-05 03:46 41.94570 -72.67651 209 ft 30 kts 44°
2026-05-05 03:46 41.94723 -72.67451 215 ft 32 kts 44°
2026-05-05 03:47 41.94887 -72.67242 216 ft 33 kts 43°
2026-05-05 03:47 41.95012 -72.67094 211 ft 0 kts
2026-05-05 03:47 41.95014 -72.67095 219 ft 0 kts 351°
2026-05-05 03:47 41.95020 -72.67105 211 ft 3 kts 297°
2026-05-05 03:48 41.95035 -72.67171 216 ft 14 kts 286°
2026-05-05 03:48 41.95079 -72.67401 212 ft 30 kts 275°
2026-05-05 03:48 41.95051 -72.67437 214 ft 8 kts 176°
2026-05-05 03:48 41.95032 -72.67413 213 ft 3 kts 94°
2026-05-05 03:49 41.95053 -72.67352 221 ft 15 kts 63°
2026-05-05 03:49 41.95086 -72.67256 222 ft 2 kts 116°
2026-05-05 03:49 41.95058 -72.67231 221 ft 3 kts 162°
2026-05-05 03:49 41.95041 -72.67238 225 ft 0 kts 221°
2026-05-05 03:50 41.95036 -72.67244 222 ft 1 kts 220°
2026-05-05 03:50 41.95024 -72.67257 218 ft 4 kts 220°
2026-05-05 03:50 41.94995 -72.67290 222 ft 7 kts 220°
2026-05-05 03:50 41.94947 -72.67344 219 ft 11 kts 219°
2026-05-05 03:51 41.94882 -72.67415 219 ft 13 kts 218°
2026-05-05 03:51 41.94824 -72.67507 220 ft 39 kts 228°
2026-05-05 03:51 41.94403 -72.68077 219 ft 130 kts 223°
2026-05-05 03:51 41.93582 -72.69146 413 ft 185 kts 222°
2026-05-05 03:52 41.92634 -72.70411 1521 ft 193 kts 225°
2026-05-05 03:52 41.91697 -72.71658 2871 ft 198 kts 225°
2026-05-05 03:52 41.90684 -72.73005 3796 ft 210 kts 226°
2026-05-05 03:52 41.89622 -72.74418 4844 ft 219 kts 227°
2026-05-05 03:53 41.88521 -72.75883 5896 ft 225 kts 227°
2026-05-05 03:53 41.87396 -72.77379 6887 ft 232 kts 227°
2026-05-05 03:53 41.86228 -72.78929 7869 ft 238 kts 227°
2026-05-05 03:53 41.85043 -72.80505 8881 ft 243 kts 227°
2026-05-05 03:54 41.83825 -72.82124 9858 ft 249 kts 227°
2026-05-05 03:54 41.82585 -72.83775 10760 ft 253 kts 227°
2026-05-05 03:54 41.81329 -72.85447 11711 ft 255 kts 228°
2026-05-05 03:54 41.80077 -72.87115 12636 ft 258 kts 229°
2026-05-05 03:55 41.78799 -72.88817 13572 ft 261 kts 229°
2026-05-05 03:55 41.77503 -72.90543 14376 ft 264 kts 229°
2026-05-05 03:55 41.76195 -72.92284 15165 ft 266 kts 229°
2026-05-05 03:55 41.74874 -72.94043 15939 ft 270 kts 229°
2026-05-05 03:56 41.73534 -72.95824 16706 ft 273 kts 229°
2026-05-05 03:56 41.72186 -72.97620 17463 ft 276 kts 229°
2026-05-05 03:56 41.70812 -72.99450 18224 ft 279 kts 229°
2026-05-05 03:56 41.69428 -73.01293 18863 ft 282 kts 229°
2026-05-05 03:57 41.68028 -73.03159 19470 ft 286 kts 229°
2026-05-05 03:57 41.66608 -73.05050 20088 ft 289 kts 229°
2026-05-05 03:57 41.65173 -73.06963 20688 ft 293 kts 229°
2026-05-05 03:57 41.63721 -73.08898 21275 ft 297 kts 229°
2026-05-05 03:58 41.62249 -73.10860 21862 ft 300 kts 229°
2026-05-05 03:58 41.60766 -73.12838 22436 ft 303 kts 230°
2026-05-05 03:58 41.59263 -73.14841 23020 ft 307 kts 230°
2026-05-05 03:58 41.57746 -73.16865 23571 ft 310 kts 230°
2026-05-05 03:59 41.56215 -73.18907 24029 ft 313 kts 230°
2026-05-05 03:59 41.54670 -73.20967 24501 ft 315 kts 230°
2026-05-05 03:59 41.53111 -73.23047 24970 ft 318 kts 230°
2026-05-05 03:59 41.51544 -73.25137 25407 ft 320 kts 230°
2026-05-05 04:00 41.49964 -73.27246 25844 ft 322 kts 229°
2026-05-05 04:00 41.48375 -73.29368 26274 ft 324 kts 230°
2026-05-05 04:00 41.46775 -73.31504 26712 ft 326 kts 230°
2026-05-05 04:00 41.45165 -73.33653 27136 ft 328 kts 229°
2026-05-05 04:01 41.43547 -73.35815 27541 ft 330 kts 229°
2026-05-05 04:01 41.41921 -73.37986 27935 ft 333 kts 229°
2026-05-05 04:01 41.40281 -73.40177 28323 ft 335 kts 229°
2026-05-05 04:01 41.38630 -73.42382 28672 ft 338 kts 229°
2026-05-05 04:02 41.36960 -73.44614 29015 ft 340 kts 229°
2026-05-05 04:02 41.35313 -73.46816 29406 ft 342 kts 229°
2026-05-05 04:02 41.33629 -73.49067 29770 ft 344 kts 229°
2026-05-05 04:02 41.31932 -73.51337 30113 ft 346 kts 229°
2026-05-05 04:03 41.30231 -73.53614 30396 ft 348 kts 229°
2026-05-05 04:03 41.28516 -73.55907 30616 ft 353 kts 229°
2026-05-05 04:03 41.26696 -73.58130 30812 ft 362 kts 220°
2026-05-05 04:03 41.24436 -73.59785 30758 ft 383 kts 204°
2026-05-05 04:04 41.21777 -73.60542 30748 ft 402 kts 186°
2026-05-05 04:04 41.18935 -73.60644 30763 ft 412 kts 187°
2026-05-05 04:04 41.16043 -73.60905 30791 ft 423 kts 188°
2026-05-05 04:04 41.13067 -73.61194 30825 ft 433 kts 188°
2026-05-05 04:05 41.06916 -73.61810 30872 ft 453 kts 188°
2026-05-05 04:05 41.03771 -73.62121 31243 ft 454 kts 187°
2026-05-05 04:05 41.00612 -73.62429 31509 ft 457 kts 187°
2026-05-05 04:06 40.97424 -73.62742 31807 ft 460 kts 187°
2026-05-05 04:06 40.94227 -73.63054 32115 ft 462 kts 187°
2026-05-05 04:06 40.91010 -73.63369 32399 ft 465 kts 187°
2026-05-05 04:06 40.87763 -73.63685 32696 ft 468 kts 187°
2026-05-05 04:07 40.84515 -73.64002 33025 ft 469 kts 187°
2026-05-05 04:07 40.81257 -73.64317 33396 ft 469 kts 187°
2026-05-05 04:07 40.78004 -73.64632 33894 ft 467 kts 187°
2026-05-05 04:07 40.74765 -73.64946 34321 ft 465 kts 187°
2026-05-05 04:08 40.71544 -73.65257 34714 ft 464 kts 187°
2026-05-05 04:08 40.68366 -73.65564 35106 ft 462 kts 188°
2026-05-05 04:08 40.65121 -73.65877 35504 ft 460 kts 188°
2026-05-05 04:08 40.61939 -73.66184 35886 ft 459 kts 188°
2026-05-05 04:09 40.58759 -73.66490 36250 ft 457 kts 188°
2026-05-05 04:09 40.55633 -73.66791 36648 ft 454 kts 188°
2026-05-05 04:09 40.52488 -73.67094 37009 ft 453 kts 189°
2026-05-05 04:09 40.49343 -73.67397 37344 ft 452 kts 189°
2026-05-05 04:10 40.46215 -73.67699 37663 ft 450 kts 189°
2026-05-05 04:10 40.43089 -73.68000 37949 ft 450 kts 189°
2026-05-05 04:10 40.36848 -73.68600 37936 ft 447 kts 189°
2026-05-05 04:11 40.30654 -73.69195 37957 ft 447 kts 189°
2026-05-05 04:11 40.24451 -73.69790 37971 ft 447 kts 189°
2026-05-05 04:12 40.18237 -73.70384 37961 ft 447 kts 189°
2026-05-05 04:12 40.12021 -73.70978 37975 ft 448 kts 189°
2026-05-05 04:13 40.05811 -73.71570 37981 ft 447 kts 189°
2026-05-05 04:13 39.99600 -73.72162 37985 ft 447 kts 189°
2026-05-05 04:14 39.96534 -73.72665 37941 ft 440 kts 200°
2026-05-05 04:14 39.93705 -73.74037 38010 ft 433 kts 206°
2026-05-05 04:14 39.88114 -73.76914 37985 ft 435 kts 206°
2026-05-05 04:15 39.82497 -73.79880 37985 ft 435 kts 206°
2026-05-05 04:15 39.77833 -73.82360 37987 ft 435 kts 206°
2026-05-05 04:16 39.72201 -73.85353 37985 ft 434 kts 206°
2026-05-05 04:16 39.66642 -73.88302 37989 ft 434 kts 206°
2026-05-05 04:17 39.61051 -73.91262 37996 ft 434 kts 206°
2026-05-05 04:17 39.55449 -73.94224 37984 ft 434 kts 206°
2026-05-05 04:18 39.49846 -73.97181 37990 ft 434 kts 206°
2026-05-05 04:18 39.44251 -74.00129 37997 ft 434 kts 206°
2026-05-05 04:19 39.41521 -74.01771 37978 ft 429 kts 217°
2026-05-05 04:19 39.39203 -74.04128 38031 ft 424 kts 223°
2026-05-05 04:19 39.34629 -74.08986 37971 ft 426 kts 223°
2026-05-05 04:20 39.30081 -74.13912 37978 ft 426 kts 223°
2026-05-05 04:20 39.25585 -74.18804 37986 ft 426 kts 223°
2026-05-05 04:21 39.21054 -74.23731 37984 ft 426 kts 223°
2026-05-05 04:21 39.16517 -74.28655 37988 ft 426 kts 223°
2026-05-05 04:22 39.11986 -74.33566 37989 ft 426 kts 223°
2026-05-05 04:22 39.07451 -74.38470 37983 ft 426 kts 223°
2026-05-05 04:23 39.02915 -74.43369 37992 ft 426 kts 223°
2026-05-05 04:23 38.98378 -74.48260 37984 ft 426 kts 223°
2026-05-05 04:24 38.93864 -74.53199 37983 ft 425 kts 226°
2026-05-05 04:25 38.87323 -74.60874 37988 ft 425 kts 225°
2026-05-05 04:25 38.82975 -74.65934 37985 ft 425 kts 225°
2026-05-05 04:26 38.78594 -74.71021 37968 ft 425 kts 225°
2026-05-05 04:26 38.74127 -74.76017 37987 ft 427 kts 222°
2026-05-05 04:27 38.69509 -74.80820 37980 ft 427 kts 223°
2026-05-05 04:27 38.64915 -74.85631 37988 ft 427 kts 223°
2026-05-05 04:28 38.60316 -74.90443 37988 ft 427 kts 223°
2026-05-05 04:28 38.55714 -74.95250 37990 ft 427 kts 223°
2026-05-05 04:29 38.51205 -75.00115 38003 ft 426 kts 224°
2026-05-05 04:29 38.46682 -75.05027 37998 ft 428 kts 219°
2026-05-05 04:30 38.41885 -75.09525 37998 ft 427 kts 220°
2026-05-05 04:30 38.37122 -75.14061 38005 ft 426 kts 220°
2026-05-05 04:31 38.32381 -75.18581 38010 ft 426 kts 220°
2026-05-05 04:31 38.27635 -75.23101 38009 ft 426 kts 220°
2026-05-05 04:32 38.22912 -75.27591 38005 ft 426 kts 220°
2026-05-05 04:32 38.18166 -75.32096 37998 ft 426 kts 221°
2026-05-05 04:33 38.13411 -75.36601 37990 ft 426 kts 221°
2026-05-05 04:33 38.08661 -75.41094 37991 ft 426 kts 221°
2026-05-05 04:34 38.03849 -75.45485 37998 ft 429 kts 218°
2026-05-05 04:34 37.98921 -75.49788 37988 ft 429 kts 218°
2026-05-05 04:35 37.94004 -75.54094 38018 ft 430 kts 218°
2026-05-05 04:35 37.89083 -75.58398 38015 ft 430 kts 218°
2026-05-05 04:36 37.83720 -75.61753 38017 ft 440 kts 195°
2026-05-05 04:36 37.80637 -75.62042 38025 ft 450 kts 181°
2026-05-05 04:36 37.77507 -75.61826 38020 ft 452 kts 181°
2026-05-05 04:37 37.71212 -75.61278 38024 ft 454 kts 180°
2026-05-05 04:37 37.68083 -75.61205 37998 ft 446 kts 192°
2026-05-05 04:37 37.65046 -75.61864 38048 ft 444 kts 194°
2026-05-05 04:38 37.58978 -75.63114 38031 ft 444 kts 194°
2026-05-05 04:38 37.52878 -75.64422 38021 ft 444 kts 194°
2026-05-05 04:39 37.46780 -75.65737 38021 ft 444 kts 194°
2026-05-05 04:39 37.40688 -75.67049 38028 ft 444 kts 194°
2026-05-05 04:40 37.34591 -75.68360 38028 ft 444 kts 194°
2026-05-05 04:40 37.28482 -75.69671 38020 ft 446 kts 194°
2026-05-05 04:41 37.22342 -75.70987 38036 ft 448 kts 194°
2026-05-05 04:41 37.16206 -75.72299 38037 ft 448 kts 194°
2026-05-05 04:42 37.10061 -75.73612 38045 ft 448 kts 194°
2026-05-05 04:42 37.04191 -75.75784 38053 ft 433 kts 213°
2026-05-05 04:43 36.98868 -75.79366 38064 ft 435 kts 213°
2026-05-05 04:43 36.93606 -75.82974 38043 ft 432 kts 214°
2026-05-05 04:44 36.88350 -75.86610 38045 ft 433 kts 214°
2026-05-05 04:44 36.83077 -75.90257 38047 ft 432 kts 213°
2026-05-05 04:45 36.77829 -75.93880 38046 ft 431 kts 213°
2026-05-05 04:45 36.72577 -75.97502 38038 ft 431 kts 213°
2026-05-05 04:46 36.67323 -76.01119 38065 ft 431 kts 213°
2026-05-05 04:46 36.62080 -76.04722 38062 ft 430 kts 213°
2026-05-05 04:47 36.56847 -76.08313 38060 ft 429 kts 213°
2026-05-05 04:47 36.51621 -76.11894 38077 ft 429 kts 213°
2026-05-05 04:48 36.46389 -76.15473 38087 ft 429 kts 213°
2026-05-05 04:48 36.41166 -76.19040 38066 ft 428 kts 213°
2026-05-05 04:49 36.35982 -76.22575 38079 ft 427 kts 213°
2026-05-05 04:49 36.30774 -76.26122 38081 ft 427 kts 213°
2026-05-05 04:50 36.25568 -76.29661 38084 ft 427 kts 213°
2026-05-05 04:50 36.20363 -76.33194 38057 ft 427 kts 213°
2026-05-05 04:51 36.15153 -76.36725 38075 ft 426 kts 213°
2026-05-05 04:51 36.09949 -76.40247 38093 ft 426 kts 213°
2026-05-05 04:52 36.04753 -76.43758 38099 ft 426 kts 213°
2026-05-05 04:52 35.99546 -76.47271 38100 ft 426 kts 213°
2026-05-05 04:53 35.94350 -76.50773 38101 ft 425 kts 213°
2026-05-05 04:53 35.89130 -76.54217 38094 ft 427 kts 211°
2026-05-05 04:54 35.83817 -76.57478 38080 ft 427 kts 211°
2026-05-05 04:54 35.78500 -76.60763 38086 ft 427 kts 211°
2026-05-05 04:55 35.73196 -76.64039 38075 ft 426 kts 211°
2026-05-05 04:55 35.67928 -76.67286 38087 ft 426 kts 211°
2026-05-05 04:56 35.62630 -76.70549 38085 ft 426 kts 211°
2026-05-05 04:56 35.57327 -76.73808 38097 ft 426 kts 211°
2026-05-05 04:57 35.52020 -76.77065 38094 ft 426 kts 211°
2026-05-05 04:57 35.46733 -76.80306 38098 ft 425 kts 211°
2026-05-05 04:58 35.41434 -76.83549 38102 ft 425 kts 211°
2026-05-05 04:58 35.36146 -76.86780 38099 ft 425 kts 211°
2026-05-05 04:59 35.30843 -76.90017 38115 ft 426 kts 211°
2026-05-05 04:59 35.25560 -76.93236 38099 ft 426 kts 211°
2026-05-05 05:00 35.20288 -76.96542 38099 ft 426 kts 212°
2026-05-05 05:00 35.15012 -76.99850 38123 ft 426 kts 212°
2026-05-05 05:01 35.09736 -77.03150 38124 ft 426 kts 212°
2026-05-05 05:01 35.04454 -77.06451 38113 ft 426 kts 212°
2026-05-05 05:02 34.99175 -77.09744 38122 ft 426 kts 212°
2026-05-05 05:02 34.93897 -77.13032 38112 ft 426 kts 212°
2026-05-05 05:03 34.89500 -77.15767 38116 ft 426 kts 212°
2026-05-05 05:03 34.84218 -77.19049 38111 ft 426 kts 212°
2026-05-05 05:04 34.78940 -77.22323 38107 ft 426 kts 212°
2026-05-05 05:04 34.73671 -77.25587 38110 ft 428 kts 212°
2026-05-05 05:05 34.68328 -77.28892 38107 ft 428 kts 212°
2026-05-05 05:05 34.63025 -77.32168 38110 ft 428 kts 212°
2026-05-05 05:06 34.57752 -77.35420 38094 ft 428 kts 211°
2026-05-05 05:06 34.52448 -77.38687 38111 ft 428 kts 211°
2026-05-05 05:07 34.46877 -77.41271 38108 ft 437 kts 194°
2026-05-05 05:07 34.40861 -77.42527 38094 ft 439 kts 195°
2026-05-05 05:08 34.34827 -77.43742 38110 ft 440 kts 194°
2026-05-05 05:08 34.28796 -77.44924 38113 ft 439 kts 194°
2026-05-05 05:09 34.22767 -77.46101 38109 ft 439 kts 194°
2026-05-05 05:09 34.16734 -77.47277 38111 ft 439 kts 194°
2026-05-05 05:10 34.10708 -77.48450 38113 ft 439 kts 194°
2026-05-05 05:10 34.04677 -77.49622 38110 ft 439 kts 194°
2026-05-05 05:11 33.98651 -77.50791 38113 ft 438 kts 194°
2026-05-05 05:11 33.92619 -77.51960 38112 ft 439 kts 194°
2026-05-05 05:12 33.86630 -77.53119 38113 ft 439 kts 194°
2026-05-05 05:12 33.80603 -77.54284 38108 ft 438 kts 194°
2026-05-05 05:13 33.74581 -77.55446 38113 ft 438 kts 194°
2026-05-05 05:13 33.68564 -77.56606 38117 ft 438 kts 194°
2026-05-05 05:14 33.62542 -77.57764 38113 ft 438 kts 194°
2026-05-05 05:14 33.56588 -77.59166 38123 ft 431 kts 202°
2026-05-05 05:15 33.50791 -77.61178 38101 ft 435 kts 201°
2026-05-05 05:15 33.44982 -77.63208 38117 ft 435 kts 201°
2026-05-05 05:16 33.39170 -77.65240 38120 ft 435 kts 201°
2026-05-05 05:16 33.33353 -77.67270 38089 ft 435 kts 201°
2026-05-05 05:17 33.27538 -77.69297 38119 ft 435 kts 201°
2026-05-05 05:17 33.21726 -77.71321 38122 ft 435 kts 201°
2026-05-05 05:18 33.15954 -77.73328 38121 ft 435 kts 201°
2026-05-05 05:18 33.10135 -77.75348 38121 ft 435 kts 201°
2026-05-05 05:19 33.04316 -77.77366 38115 ft 435 kts 202°
2026-05-05 05:19 32.98503 -77.79378 38124 ft 435 kts 202°
2026-05-05 05:20 32.92687 -77.81389 38118 ft 435 kts 202°
2026-05-05 05:20 32.86870 -77.83397 38119 ft 435 kts 202°
2026-05-05 05:21 32.81060 -77.85401 38122 ft 435 kts 202°
2026-05-05 05:21 32.75238 -77.87405 38125 ft 435 kts 202°
2026-05-05 05:22 32.69462 -77.89392 38125 ft 435 kts 202°
2026-05-05 05:22 32.63623 -77.91309 38125 ft 436 kts 201°
2026-05-05 05:23 32.57772 -77.93207 38121 ft 436 kts 201°
2026-05-05 05:23 32.51920 -77.95106 38115 ft 436 kts 201°
2026-05-05 05:24 32.46069 -77.97002 38115 ft 437 kts 201°
2026-05-05 05:24 32.40172 -77.98911 38120 ft 439 kts 201°
2026-05-05 05:25 32.34274 -78.00818 38126 ft 439 kts 201°
2026-05-05 05:25 32.28375 -78.02721 38110 ft 439 kts 201°
2026-05-05 05:26 32.22471 -78.04625 38119 ft 439 kts 201°
2026-05-05 05:26 32.16575 -78.06523 38121 ft 439 kts 201°
2026-05-05 05:27 32.10673 -78.08420 38125 ft 439 kts 201°
2026-05-05 05:27 32.01814 -78.11263 38116 ft 439 kts 202°
2026-05-05 05:28 31.95912 -78.13154 38120 ft 439 kts 202°
2026-05-05 05:28 31.90041 -78.15033 38122 ft 439 kts 202°
2026-05-05 05:29 31.84145 -78.16917 38122 ft 440 kts 202°
2026-05-05 05:29 31.78225 -78.18806 38093 ft 439 kts 202°
2026-05-05 05:30 31.72318 -78.20689 38123 ft 440 kts 202°
2026-05-05 05:30 31.66411 -78.22569 38123 ft 440 kts 202°
2026-05-05 05:31 31.60504 -78.24446 38122 ft 440 kts 202°
2026-05-05 05:31 31.54598 -78.26321 38118 ft 440 kts 202°
2026-05-05 05:32 31.48689 -78.28195 38113 ft 439 kts 203°
2026-05-05 05:32 31.42831 -78.30155 38117 ft 438 kts 204°
2026-05-05 05:33 31.37006 -78.32108 38119 ft 438 kts 204°
2026-05-05 05:33 31.31142 -78.34069 38118 ft 438 kts 204°
2026-05-05 05:34 31.25277 -78.36028 38080 ft 438 kts 204°
2026-05-05 05:34 31.19413 -78.37983 38114 ft 438 kts 204°
2026-05-05 05:35 31.13552 -78.39936 38115 ft 438 kts 204°
2026-05-05 05:35 31.07696 -78.41884 38116 ft 438 kts 204°
2026-05-05 05:36 31.01836 -78.43831 38117 ft 438 kts 204°
2026-05-05 05:36 30.95980 -78.45774 38119 ft 438 kts 204°
2026-05-05 05:37 30.90147 -78.47707 38116 ft 438 kts 204°
2026-05-05 05:37 30.84249 -78.49659 38112 ft 438 kts 204°
2026-05-05 05:38 30.78381 -78.51598 38113 ft 438 kts 204°
2026-05-05 05:38 30.72553 -78.53523 38044 ft 438 kts 204°
2026-05-05 05:39 30.66678 -78.55460 38115 ft 439 kts 204°
2026-05-05 05:39 30.60803 -78.57394 38114 ft 438 kts 204°
2026-05-05 05:40 30.54930 -78.59326 38116 ft 439 kts 204°
2026-05-05 05:40 30.49057 -78.61255 38107 ft 439 kts 204°
2026-05-05 05:41 30.43181 -78.63183 38086 ft 439 kts 204°
2026-05-05 05:41 30.37281 -78.65115 38110 ft 440 kts 204°
2026-05-05 05:42 30.31386 -78.67045 38110 ft 440 kts 204°
2026-05-05 05:42 30.25491 -78.68973 38096 ft 442 kts 204°
2026-05-05 05:43 30.19535 -78.70916 38108 ft 446 kts 204°
2026-05-05 05:43 30.13597 -78.72853 38104 ft 445 kts 204°
2026-05-05 05:44 30.07632 -78.74796 38106 ft 445 kts 204°
2026-05-05 05:44 30.01662 -78.76739 38105 ft 446 kts 204°
2026-05-05 05:45 29.95695 -78.78678 38103 ft 446 kts 204°
2026-05-05 05:45 29.89725 -78.80616 38064 ft 446 kts 204°
2026-05-05 05:46 29.83739 -78.82557 38105 ft 447 kts 204°
2026-05-05 05:46 29.77714 -78.84363 38083 ft 455 kts 196°
2026-05-05 05:47 29.71396 -78.85218 38088 ft 457 kts 195°
2026-05-05 05:47 29.65080 -78.86077 38095 ft 458 kts 195°
2026-05-05 05:48 29.58751 -78.86931 38098 ft 458 kts 195°
2026-05-05 05:48 29.52461 -78.87778 38090 ft 458 kts 195°
2026-05-05 05:49 29.46140 -78.88628 38092 ft 458 kts 195°
2026-05-05 05:49 29.39803 -78.89479 38091 ft 458 kts 195°
2026-05-05 05:50 29.36634 -78.89904 38091 ft 458 kts 195°
2026-05-05 05:50 29.28210 -78.91033 38088 ft 458 kts 195°
2026-05-05 05:51 29.21882 -78.91880 38088 ft 458 kts 195°
2026-05-05 05:51 29.15552 -78.92726 38089 ft 458 kts 195°
2026-05-05 05:52 29.09216 -78.93572 38086 ft 458 kts 195°
2026-05-05 05:52 29.02889 -78.94415 38084 ft 459 kts 195°
2026-05-05 05:53 28.96536 -78.95261 38087 ft 458 kts 195°
2026-05-05 05:53 28.90204 -78.96103 38085 ft 458 kts 195°
2026-05-05 05:54 28.83868 -78.96945 38087 ft 458 kts 195°
2026-05-05 05:54 28.77569 -78.97781 38037 ft 458 kts 196°
2026-05-05 05:55 28.71226 -78.98621 38082 ft 459 kts 196°
2026-05-05 05:55 28.64887 -78.99460 38075 ft 458 kts 196°
2026-05-05 05:56 28.58550 -79.00298 38074 ft 459 kts 196°
2026-05-05 05:56 28.52203 -79.01136 38075 ft 459 kts 196°
2026-05-05 05:57 28.45665 -79.01998 38078 ft 459 kts 197°
2026-05-05 05:57 28.39519 -79.02808 38070 ft 459 kts 197°
2026-05-05 05:58 28.33261 -79.03892 38049 ft 442 kts 208°
2026-05-05 05:58 28.27415 -79.06076 38046 ft 442 kts 208°
2026-05-05 05:59 28.21555 -79.08250 38010 ft 444 kts 209°
2026-05-05 05:59 28.17674 -79.09697 38063 ft 444 kts 210°
2026-05-05 06:00 28.09878 -79.12600 38064 ft 444 kts 210°
2026-05-05 06:00 28.04013 -79.14781 38062 ft 443 kts 210°
2026-05-05 06:01 27.98148 -79.16959 38063 ft 443 kts 210°
2026-05-05 06:01 27.92288 -79.19134 38019 ft 444 kts 210°
2026-05-05 06:02 27.86407 -79.21313 38062 ft 445 kts 210°
2026-05-05 06:02 27.80527 -79.23490 38059 ft 444 kts 210°
2026-05-05 06:03 27.74651 -79.25663 38056 ft 444 kts 210°
2026-05-05 06:03 27.68770 -79.27835 38056 ft 445 kts 210°
2026-05-05 06:04 27.62891 -79.30004 38015 ft 445 kts 210°
2026-05-05 06:04 27.57007 -79.32172 37754 ft 443 kts 210°
2026-05-05 06:05 27.54068 -79.33254 36838 ft 447 kts 209°
2026-05-05 06:05 27.51096 -79.34348 36018 ft 451 kts 208°
2026-05-05 06:05 27.48104 -79.35448 35307 ft 451 kts 208°
2026-05-05 06:05 27.45125 -79.36543 34669 ft 451 kts 208°
2026-05-05 06:06 27.42180 -79.37624 34103 ft 449 kts 207°
2026-05-05 06:06 27.39219 -79.38712 33485 ft 447 kts 207°
2026-05-05 06:06 27.36231 -79.39809 32885 ft 444 kts 207°
2026-05-05 06:06 27.33349 -79.40866 32332 ft 441 kts 207°
2026-05-05 06:07 27.30442 -79.41931 31774 ft 438 kts 207°
2026-05-05 06:07 27.27542 -79.42994 31165 ft 437 kts 207°
2026-05-05 06:07 27.24660 -79.44049 30613 ft 434 kts 207°
2026-05-05 06:07 27.21793 -79.45098 30080 ft 432 kts 206°
2026-05-05 06:08 27.18940 -79.46141 29449 ft 429 kts 206°
2026-05-05 06:08 27.16118 -79.47173 28882 ft 426 kts 206°
2026-05-05 06:08 27.13314 -79.48197 28354 ft 422 kts 206°
2026-05-05 06:08 27.10536 -79.49212 27830 ft 418 kts 206°
2026-05-05 06:09 27.07783 -79.50217 27265 ft 414 kts 206°
2026-05-05 06:09 27.05052 -79.51213 26753 ft 411 kts 206°
2026-05-05 06:09 27.02339 -79.52202 26211 ft 409 kts 205°
2026-05-05 06:09 26.99642 -79.53185 25740 ft 405 kts 205°
2026-05-05 06:10 26.96973 -79.54157 25262 ft 402 kts 205°
2026-05-05 06:10 26.94318 -79.55124 24782 ft 399 kts 205°
2026-05-05 06:10 26.91682 -79.56083 24320 ft 396 kts 205°
2026-05-05 06:10 26.89067 -79.57031 23836 ft 394 kts 205°
2026-05-05 06:11 26.86464 -79.57971 23264 ft 393 kts 205°
2026-05-05 06:11 26.83884 -79.58902 22798 ft 388 kts 204°
2026-05-05 06:11 26.81329 -79.59824 22365 ft 383 kts 204°
2026-05-05 06:11 26.78809 -79.60733 21919 ft 378 kts 205°
2026-05-05 06:12 26.76326 -79.61628 21500 ft 374 kts 204°
2026-05-05 06:12 26.73863 -79.62516 21102 ft 369 kts 204°
2026-05-05 06:12 26.71423 -79.63394 20684 ft 366 kts 204°
2026-05-05 06:12 26.69014 -79.64262 20260 ft 363 kts 204°
2026-05-05 06:13 26.66641 -79.65116 19687 ft 365 kts 204°
2026-05-05 06:13 26.64219 -79.65987 19093 ft 367 kts 203°
2026-05-05 06:13 26.61778 -79.66852 18576 ft 367 kts 202°
2026-05-05 06:13 26.59342 -79.67705 18117 ft 365 kts 202°
2026-05-05 06:14 26.56925 -79.68553 17659 ft 361 kts 202°
2026-05-05 06:14 26.54540 -79.69389 17241 ft 357 kts 202°
2026-05-05 06:14 26.52187 -79.70214 16831 ft 353 kts 202°
2026-05-05 06:14 26.49849 -79.71033 16430 ft 349 kts 202°
2026-05-05 06:15 26.47553 -79.71847 16108 ft 341 kts 204°
2026-05-05 06:15 26.45537 -79.73110 16032 ft 330 kts 224°
2026-05-05 06:15 26.43918 -79.74915 15960 ft 329 kts 229°
2026-05-05 06:15 26.42337 -79.76757 15903 ft 329 kts 229°
2026-05-05 06:16 26.40767 -79.78619 15851 ft 329 kts 229°
2026-05-05 06:16 26.39231 -79.80459 15816 ft 317 kts 230°
2026-05-05 06:16 26.37873 -79.82330 15573 ft 307 kts 238°
2026-05-05 06:16 26.36680 -79.84273 15348 ft 301 kts 237°
2026-05-05 06:17 26.35510 -79.86141 15127 ft 294 kts 237°
2026-05-05 06:17 26.34329 -79.88008 14903 ft 289 kts 237°
2026-05-05 06:17 26.33185 -79.89805 14684 ft 287 kts 236°
2026-05-05 06:17 26.32037 -79.91634 14444 ft 288 kts 237°
2026-05-05 06:18 26.30893 -79.93467 14203 ft 288 kts 237°
2026-05-05 06:18 26.29751 -79.95293 14004 ft 287 kts 237°
2026-05-05 06:18 26.28605 -79.97121 13779 ft 287 kts 237°
2026-05-05 06:18 26.27468 -79.98936 13530 ft 286 kts 237°
2026-05-05 06:19 26.26307 -80.00740 13288 ft 286 kts 231°
2026-05-05 06:19 26.24732 -80.02085 13001 ft 289 kts 208°
2026-05-05 06:19 26.22794 -80.02700 12788 ft 292 kts 197°
2026-05-05 06:19 26.20802 -80.03188 12570 ft 293 kts 197°
2026-05-05 06:20 26.18814 -80.03664 12350 ft 291 kts 197°
2026-05-05 06:20 26.16839 -80.04126 12130 ft 290 kts 196°
2026-05-05 06:20 26.14867 -80.04583 11909 ft 289 kts 196°
2026-05-05 06:20 26.12902 -80.05034 11680 ft 288 kts 196°
2026-05-05 06:21 26.10943 -80.05483 11456 ft 287 kts 196°
2026-05-05 06:21 26.08992 -80.05929 11237 ft 286 kts 196°
2026-05-05 06:21 26.07055 -80.06378 11056 ft 282 kts 197°
2026-05-05 06:21 26.05146 -80.06875 10862 ft 283 kts 197°
2026-05-05 06:22 26.03251 -80.07369 10652 ft 282 kts 197°
2026-05-05 06:22 26.01350 -80.07862 10442 ft 279 kts 197°
2026-05-05 06:22 25.99475 -80.08346 10226 ft 274 kts 197°
2026-05-05 06:22 25.97629 -80.08823 9990 ft 270 kts 197°
2026-05-05 06:23 25.95815 -80.09291 9742 ft 265 kts 197°
2026-05-05 06:23 25.94014 -80.09756 9512 ft 266 kts 197°
2026-05-05 06:23 25.92317 -80.10512 9255 ft 261 kts 219°
2026-05-05 06:23 25.91027 -80.11898 9025 ft 258 kts 229°
2026-05-05 06:24 25.89795 -80.13350 8834 ft 258 kts 229°
2026-05-05 06:24 25.88625 -80.14857 8595 ft 257 kts 239°
2026-05-05 06:24 25.88059 -80.16719 8349 ft 256 kts 264°
2026-05-05 06:24 25.87964 -80.18689 8172 ft 255 kts 265°
2026-05-05 06:25 25.87866 -80.20630 7924 ft 256 kts 266°
2026-05-05 06:25 25.87779 -80.22611 7621 ft 257 kts 266°
2026-05-05 06:25 25.87701 -80.24600 7321 ft 257 kts 266°
2026-05-05 06:25 25.87630 -80.26583 7037 ft 256 kts 267°
2026-05-05 06:26 25.87564 -80.28546 6751 ft 254 kts 267°
2026-05-05 06:26 25.87498 -80.30507 6440 ft 254 kts 267°
2026-05-05 06:26 25.87433 -80.32469 6112 ft 254 kts 268°
2026-05-05 06:26 25.87368 -80.34427 5823 ft 253 kts 268°
2026-05-05 06:27 25.87304 -80.36376 5542 ft 252 kts 268°
2026-05-05 06:27 25.87136 -80.40282 5077 ft 254 kts 266°
2026-05-05 06:27 25.87008 -80.42231 4956 ft 253 kts 266°
2026-05-05 06:28 25.86882 -80.44181 4682 ft 255 kts 266°
2026-05-05 06:28 25.86755 -80.46140 4339 ft 258 kts 266°
2026-05-05 06:28 25.86626 -80.48155 3989 ft 259 kts 266°
2026-05-05 06:28 25.86498 -80.50129 3660 ft 260 kts 266°
2026-05-05 06:29 25.86369 -80.52138 3323 ft 261 kts 266°
2026-05-05 06:29 25.86241 -80.54136 3111 ft 257 kts 265°
2026-05-05 06:29 25.86098 -80.56113 3083 ft 257 kts 260°
2026-05-05 06:29 25.85366 -80.57872 3100 ft 250 kts 226°
2026-05-05 06:30 25.83913 -80.58812 3092 ft 242 kts 192°
2026-05-05 06:30 25.82239 -80.58885 3104 ft 242 kts 170°
2026-05-05 06:30 25.80678 -80.58216 3085 ft 241 kts 144°
2026-05-05 06:30 25.79580 -80.56845 3081 ft 239 kts 117°
2026-05-05 06:31 25.79128 -80.55080 3089 ft 241 kts 95°
2026-05-05 06:31 25.79112 -80.53225 3090 ft 241 kts 88°
2026-05-05 06:31 25.79183 -80.51362 3082 ft 241 kts 87°
2026-05-05 06:31 25.79263 -80.49503 3084 ft 242 kts 87°
2026-05-05 06:32 25.79342 -80.47638 3079 ft 242 kts 87°
2026-05-05 06:32 25.79420 -80.45775 3085 ft 242 kts 87°
2026-05-05 06:32 25.79497 -80.43911 3071 ft 242 kts 87°
2026-05-05 06:32 25.79573 -80.42080 2631 ft 239 kts 87°
2026-05-05 06:33 25.79650 -80.40246 2042 ft 234 kts 87°
2026-05-05 06:33 25.79721 -80.38520 1760 ft 214 kts 88°
2026-05-05 06:33 25.79787 -80.36931 1428 ft 196 kts 87°
2026-05-05 06:33 25.79847 -80.35504 1156 ft 173 kts 87°
2026-05-05 06:34 25.79898 -80.34256 924 ft 151 kts 86°
2026-05-05 06:34 25.79952 -80.33134 587 ft 145 kts 84°
2026-05-05 06:34 25.80012 -80.32035 334 ft 141 kts 84°
2026-05-05 06:34 25.80040 -80.30943 115 ft 141 kts 85°
2026-05-05 06:35 25.80087 -80.29860 21 ft 134 kts 84°
2026-05-05 06:35 25.80123 -80.28927 21 ft 103 kts 88°
2026-05-05 06:35 25.80148 -80.28402 17 ft 37 kts 87°
2026-05-05 06:35 25.80074 -80.28183 17 ft 27 kts 137°
2026-05-05 06:36 25.79939 -80.28145 17 ft 16 kts 169°
2026-05-05 06:36 25.79898 -80.28099 17 ft 6 kts 98°
2026-05-05 06:36 25.79899 -80.28068 17 ft 6 kts 92°
2026-05-05 06:36 25.79884 -80.28009 19 ft 9 kts 131°
2026-05-05 06:37 25.79816 -80.27996 17 ft 12 kts 178°
2026-05-05 06:37 25.79809 -80.27995 17 ft 0 kts 158°
2026-05-05 06:37 25.79808 -80.27992 17 ft 1 kts 129°
2026-05-05 06:37 25.79812 -80.27961 17 ft 7 kts 85°
2026-05-05 06:38 25.79803 -80.27948 17 ft 1 kts 162°
2026-05-05 06:38 25.79786 -80.27946 17 ft 4 kts 174°
2026-05-05 06:38 25.79780 -80.27945 17 ft 0 kts 174°